Location: Monrovia
(34.7865°N, 86.7139°W)
Time: 21:52:33
(UTC+00:00)

CZ-4C R/B - Pass Details

Date: 14 July 2020
Orbit: 632 x 1370 km, 63.4° (Epoch: 08 August)

Event Time Altitude Azimuth Distance (km) Brightness Sun altitude
Rises 03:43:56 0° 339° (NNW) 3,860 6.9 -25.8°
Reaches altitude 10° 03:47:02 10° 352° (N) 3,022 5.9 -26.2°
Maximum altitude 03:52:59 25° 46° (NE) 2,260 4.5 -26.8°
Enters shadow 03:56:51 18° 84° (E) 2,734 4.6 -27.2°
